TimeEST,TemperatureF,Dew PointF,Humidity,Sea Level PressureIn,VisibilityMPH,Wind Direction,Wind SpeedMPH,Gust SpeedMPH,PrecipitationIn,Events,Conditions,WindDirDegrees,DateUTC
12:15 AM,21.2,17.6,86,29.54,3.0,NW,8.1,-,N/A,,Overcast,320,2013-02-01 05:15:00
12:35 AM,21.2,15.8,80,29.55,5.0,WNW,10.4,-,N/A,,Overcast,290,2013-02-01 05:35:00
1:15 AM,21.2,10.4,63,29.55,10.0,West,16.1,21.9,N/A,,Overcast,270,2013-02-01 06:15:00
1:35 AM,21.2,10.4,63,29.56,10.0,WNW,9.2,20.7,N/A,,Overcast,290,2013-02-01 06:35:00
1:55 AM,23.0,10.4,59,29.57,10.0,West,12.7,21.9,N/A,,Overcast,270,2013-02-01 06:55:00
2:15 AM,21.2,12.2,68,29.57,5.0,WNW,11.5,21.9,N/A,,Overcast,290,2013-02-01 07:15:00
2:35 AM,21.2,10.4,63,29.57,10.0,West,11.5,17.3,N/A,,Overcast,270,2013-02-01 07:35:00
2:55 AM,21.2,12.2,68,29.58,3.0,WNW,8.1,17.3,N/A,,Overcast,290,2013-02-01 07:55:00
3:15 AM,21.2,15.8,80,29.58,5.0,West,4.6,-,N/A,,Overcast,260,2013-02-01 08:15:00
3:35 AM,21.2,14.0,74,29.58,10.0,West,8.1,-,N/A,,Overcast,280,2013-02-01 08:35:00
3:55 AM,21.2,12.2,68,29.59,10.0,West,6.9,-,N/A,,Overcast,260,2013-02-01 08:55:00
4:15 AM,21.2,12.2,68,29.60,10.0,West,8.1,16.1,N/A,,Overcast,280,2013-02-01 09:15:00
4:35 AM,21.2,12.2,68,29.60,10.0,West,8.1,-,N/A,,Overcast,280,2013-02-01 09:35:00
4:55 AM,21.2,8.6,58,29.60,10.0,West,11.5,20.7,N/A,,Mostly Cloudy,280,2013-02-01 09:55:00
5:15 AM,21.2,6.8,54,29.61,10.0,WNW,6.9,21.9,N/A,,Overcast,290,2013-02-01 10:15:00
5:35 AM,21.2,6.8,54,29.62,10.0,West,10.4,17.3,N/A,,Overcast,260,2013-02-01 10:35:00
6:15 AM,19.4,8.6,63,29.63,10.0,WNW,6.9,18.4,N/A,,Scattered Clouds,290,2013-02-01 11:15:00
6:35 AM,19.4,8.6,63,29.65,10.0,WNW,6.9,-,N/A,,Scattered Clouds,290,2013-02-01 11:35:00
6:55 AM,19.4,8.6,63,29.65,10.0,West,12.7,17.3,N/A,,Overcast,280,2013-02-01 11:55:00
7:15 AM,19.4,6.8,58,29.67,10.0,West,12.7,17.3,N/A,,Mostly Cloudy,280,2013-02-01 12:15:00
7:35 AM,19.4,6.8,58,29.68,10.0,West,10.4,21.9,N/A,,Partly Cloudy,260,2013-02-01 12:35:00
7:56 AM,19.4,6.8,58,29.70,10.0,West,9.2,16.1,N/A,,Mostly Cloudy,280,2013-02-01 12:56:00
8:15 AM,19.4,6.8,58,29.70,10.0,WNW,11.5,-,N/A,,Overcast,290,2013-02-01 13:15:00
8:35 AM,19.4,8.6,63,29.71,10.0,West,8.1,-,N/A,,Overcast,260,2013-02-01 13:35:00
8:55 AM,19.4,6.8,58,29.72,10.0,West,8.1,18.4,N/A,,Overcast,270,2013-02-01 13:55:00
9:15 AM,21.2,6.8,54,29.72,10.0,West,10.4,17.3,N/A,,Overcast,270,2013-02-01 14:15:00
9:35 AM,21.2,8.6,58,29.73,9.0,West,8.1,-,N/A,,Overcast,260,2013-02-01 14:35:00
9:56 AM,21.2,6.8,54,29.74,10.0,West,11.5,20.7,N/A,,Overcast,270,2013-02-01 14:56:00
10:15 AM,21.2,6.8,54,29.75,10.0,West,9.2,18.4,N/A,,Overcast,270,2013-02-01 15:15:00
10:35 AM,21.2,6.8,54,29.76,10.0,West,12.7,20.7,N/A,,Overcast,270,2013-02-01 15:35:00
11:15 AM,19.4,8.6,63,29.78,5.0,West,10.4,17.3,N/A,,Overcast,260,2013-02-01 16:15:00
11:35 AM,19.4,12.2,74,29.78,2.0,West,8.1,-,N/A,,Overcast,260,2013-02-01 16:35:00
12:15 PM,19.4,10.4,68,29.78,4.0,WNW,10.4,18.4,N/A,,Overcast,300,2013-02-01 17:15:00
12:35 PM,19.4,8.6,63,29.78,3.0,WNW,8.1,-,N/A,,Overcast,290,2013-02-01 17:35:00
1:15 PM,21.2,6.8,54,29.78,10.0,NNW,11.5,21.9,N/A,,Overcast,330,2013-02-01 18:15:00
1:35 PM,21.2,8.6,58,29.79,10.0,NNW,11.5,17.3,N/A,,Overcast,330,2013-02-01 18:35:00
1:55 PM,19.4,8.6,63,29.79,10.0,NNW,10.4,-,N/A,,Mostly Cloudy,330,2013-02-01 18:55:00
2:15 PM,21.2,8.6,58,29.80,10.0,WNW,15.0,18.4,N/A,,Mostly Cloudy,290,2013-02-01 19:15:00
2:35 PM,21.2,3.2,46,29.80,10.0,NW,15.0,24.2,N/A,,Mostly Cloudy,320,2013-02-01 19:35:00
3:15 PM,19.4,10.4,68,29.82,10.0,North,13.8,-,N/A,,Mostly Cloudy,360,2013-02-01 20:15:00
3:35 PM,19.4,10.4,68,29.84,10.0,NNW,8.1,-,N/A,,Mostly Cloudy,340,2013-02-01 20:35:00
4:15 PM,19.4,1.4,46,29.85,10.0,NNW,9.2,20.7,N/A,,Scattered Clouds,330,2013-02-01 21:15:00
4:35 PM,19.4,1.4,46,29.86,10.0,WNW,11.5,-,N/A,,Mostly Cloudy,300,2013-02-01 21:35:00
5:15 PM,19.4,1.4,46,29.89,10.0,WNW,8.1,-,N/A,,Mostly Cloudy,290,2013-02-01 22:15:00
5:35 PM,19.4,1.4,46,29.90,10.0,WNW,15.0,23.0,N/A,,Overcast,290,2013-02-01 22:35:00
5:55 PM,19.4,1.4,46,29.91,10.0,WNW,8.1,-,N/A,,Overcast,300,2013-02-01 22:55:00
6:15 PM,19.4,1.4,46,29.93,10.0,WNW,9.2,18.4,N/A,,Overcast,300,2013-02-01 23:15:00
6:35 PM,17.6,1.4,49,29.94,10.0,WNW,6.9,-,N/A,,Mostly Cloudy,290,2013-02-01 23:35:00
7:15 PM,17.6,3.2,53,29.96,10.0,WNW,12.7,19.6,N/A,,Overcast,300,2013-02-02 00:15:00
7:35 PM,17.6,1.4,49,29.97,10.0,NW,13.8,21.9,N/A,,Overcast,310,2013-02-02 00:35:00
7:55 PM,17.6,1.4,49,29.98,10.0,WNW,12.7,20.7,N/A,,Overcast,300,2013-02-02 00:55:00
8:15 PM,17.6,1.4,49,29.99,10.0,WNW,15.0,21.9,N/A,,Overcast,300,2013-02-02 01:15:00
8:35 PM,17.6,-0.4,45,29.99,10.0,NW,8.1,20.7,N/A,,Overcast,310,2013-02-02 01:35:00
8:55 PM,15.8,3.2,58,30.00,10.0,WNW,10.4,-,N/A,,Overcast,300,2013-02-02 01:55:00
9:16 PM,17.6,1.4,49,30.01,10.0,NW,8.1,16.1,N/A,,Overcast,320,2013-02-02 02:16:00
9:55 PM,15.8,1.4,53,30.01,10.0,WNW,8.1,17.3,N/A,,Overcast,300,2013-02-02 02:55:00
10:15 PM,15.8,3.2,58,30.02,10.0,WNW,8.1,23.0,N/A,,Overcast,290,2013-02-02 03:15:00
10:35 PM,15.8,3.2,58,30.03,10.0,West,5.8,-,N/A,,Overcast,270,2013-02-02 03:35:00
10:55 PM,15.8,6.8,68,30.03,10.0,West,5.8,-,N/A,,Overcast,260,2013-02-02 03:55:00
11:15 PM,15.8,1.4,53,30.04,10.0,West,9.2,17.3,N/A,,Mostly Cloudy,280,2013-02-02 04:15:00
11:35 PM,15.8,-0.4,49,30.04,10.0,West,12.7,18.4,N/A,,Partly Cloudy,280,2013-02-02 04:35:00
11:55 PM,15.8,1.4,53,30.05,10.0,West,9.2,19.6,N/A,,Clear,270,2013-02-02 04:55:00